[[{"header":{"parameterUnit":"m.s-1","parameterCategory":1,"la1":30.2991,"la2":30.254,"lo1":-89.0895,"lo2":-89.0444,"dy":0.0017,"dx":0.0017,"nx":28,"ny":28,"refTime":"2023-03-22T21:00:00:Z","depth":0,"parameterNumber":2,"parameterNumberName":"U-component_of_WINDS"},"data":[0,0,0,0,0,0,0,0,0,0,0,0,0,0,0,0,0,0,0,0,0,0,0,0,0,0,0,0,0,0,0,0,0,0,0,0,0,0,0,0,0,0,0,0,0,0,0,0,0,0,0,0,0,0,0,0,0,0,-2.8286,-2.8286,0,-2.8298,-2.8298,-2.8298,-2.8278,-2.8277,-2.8277,-2.8276,-2.8287,-2.8287,-2.8288,0,0,0,0,0,0,0,0,0,0,0,0,0,-2.8245,-2.8246,-2.8286,-2.8286,-2.8287,-2.8298,-2.8298,-2.8298,-2.8278,-2.8277,-2.8277,-2.8276,-2.8286,-2.8287,-2.8288,0,0,0,0,0,0,0,0,0,0,0,0,0,-2.826,-2.8246,-2.8286,-2.8278,-2.8277,-2.8298,-2.8298,-2.8298,-2.8278,-2.8277,-2.8276,-2.8275,-2.8286,-2.8287,-2.8289,-2.8317,0,0,-2.8293,-2.8293,0,0,0,0,0,0,0,0,-2.8259,-2.8262,-2.8279,-2.8279,-2.8278,-2.8286,-2.8287,-2.8305,-2.8279,-2.8278,-2.8276,-2.8275,-2.8287,-2.8288,-2.8293,-2.8318,-2.8318,-2.8293,-2.8294,-2.8294,-2.8295,0,0,0,0,0,0,0,-2.8258,-2.8261,-2.8291,-2.8279,-2.8279,-2.8273,-2.8274,-2.8291,-2.8288,-2.8278,-2.8276,-2.8278,-2.8286,-2.8291,-2.8293,-2.8318,-2.8293,-2.8294,-2.8295,-2.8295,-2.8367,-2.8368,0,0,0,0,0,0,-2.8259,-2.826,-2.829,-2.8291,-2.8266,-2.8275,-2.8276,-2.8284,-2.8288,-2.8287,-2.8279,-2.8277,-2.8289,-2.8291,-2.8293,-2.8326,-2.8294,-2.8296,-2.8296,-2.8366,-2.8368,-2.8369,0,0,0,0,0,0,-2.8258,-2.8261,-2.829,-2.8275,-2.8279,-2.8277,-2.8286,-2.8285,-2.829,-2.8289,-2.8288,-2.8285,-2.8289,-2.8291,-2.8311,-2.8326,-2.8296,-2.8297,-2.8365,-2.8367,-2.8368,-2.8392,0,0,0,0,0,0,-2.8257,-2.8261,-2.8272,-2.8276,-2.828,-2.8309,-2.8287,-2.8286,-2.8292,-2.829,-2.8294,-2.8293,-2.8288,-2.8309,-2.8313,-2.8327,-2.8298,-2.8364,-2.8366,-2.8368,-2.839,-2.8395,-2.8398,0,0,0,0,0,-2.8255,-2.8278,-2.8273,-2.8277,-2.8293,-2.8309,-2.8311,-2.8306,-2.8294,-2.8304,-2.8304,-2.8293,-2.8324,-2.8312,-2.8315,-2.833,-2.8363,-2.8365,-2.8367,-2.8388,-2.8394,-2.8398,0,0,0,0,0,0,-2.8276,-2.8279,-2.8273,-2.8298,-2.8304,-2.8306,-2.8319,-2.8312,-2.832,-2.8318,-2.831,-2.8311,-2.8332,-2.8334,-2.832,-2.8358,-2.8341,-2.8345,-2.8356,-2.8361,-2.8365,-2.8363,-2.83,0,0,0,0,0,-2.8284,-2.8297,-2.8299,-2.8321,-2.8324,-2.8321,-2.8328,-2.8323,-2.8329,-2.8331,-2.8332,-2.8337,-2.8348,-2.8355,-2.8365,-2.8391,-2.8391,-2.8403,-2.8408,-2.8411,-2.8413,-2.8426,-2.8431,-2.8377,-2.8377,-2.8377,0,0,-2.8299,-2.8302,-2.8311,-2.8325,-2.8329,-2.8342,-2.8323,-2.8338,-2.8348,-2.8333,-2.8352,-2.8353,-2.8358,-2.8381,-2.8392,-2.8383,-2.8428,-2.8414,-2.8417,-2.8417,-2.8429,-2.8434,-2.8439,-2.8378,-2.8378,-2.8378,0,0,-2.8333,-2.8338,-2.8356,-2.8361,-2.8368,-2.8366,-2.837,-2.8374,-2.8374,-2.8394,-2.8383,-2.8394,-2.8413,-2.8417,-2.8422,-2.8459,-2.8449,-2.8463,-2.8483,-2.8496,-2.85,-2.8504,-2.8515,-2.852,-2.8466,-2.8466,-2.8466,0,-2.8351,-2.8371,-2.8367,-2.8382,-2.8388,-2.8377,-2.8395,-2.8399,-2.8409,-2.8413,-2.8404,-2.8427,-2.843,-2.8454,-2.8463,-2.8468,-2.8472,-2.8461,-2.85,-2.8504,-2.8507,-2.8518,-2.8523,-2.8467,-2.8467,-2.8467,-2.8467,0,-2.8392,-2.8407,-2.8421,-2.843,-2.8438,-2.8455,-2.8452,-2.8461,-2.8456,-2.8455,-2.8475,-2.8478,-2.8488,-2.8494,-2.8489,-2.8517,-2.8511,-2.8502,-2.8484,-2.8514,-2.8524,-2.8528,-2.8469,-2.8469,-2.8468,-2.8468,0,0,-2.8438,-2.8446,-2.8451,-2.8455,-2.8462,-2.8472,-2.8489,-2.85,-2.8506,-2.8514,-2.8526,-2.8544,-2.8534,-2.854,-2.8535,-2.8547,-2.8574,-2.8535,-2.8535,-2.8541,-2.8603,-2.8609,-2.8614,-2.8569,-2.857,-2.8571,-2.8602,0,-2.8471,-2.8499,-2.8496,-2.8523,-2.8535,-2.8525,-2.8539,-2.8545,-2.8545,-2.8555,-2.8555,-2.8567,-2.8555,-2.8558,-2.8569,-2.8569,-2.8587,-2.8567,-2.8579,-2.858,-2.8576,-2.862,-2.8626,-2.8655,-2.8606,-2.8607,-2.8608,0,-2.8512,-2.8522,-2.855,-2.8555,-2.856,-2.8572,-2.8582,-2.8592,-2.8598,-2.8598,-2.8604,-2.8598,-2.8614,-2.8598,-2.8619,-2.8606,-2.8611,-2.8612,-2.8613,-2.8612,-2.8594,-2.8618,-2.8665,-2.8669,-2.8614,-2.8614,-2.8613,0,-2.854,-2.856,-2.8579,-2.8583,-2.859,-2.8599,-2.8602,-2.8608,-2.8614,-2.8623,-2.8626,-2.8637,-2.8642,-2.8649,-2.8646,-2.8635,-2.8667,-2.8652,-2.8666,-2.8666,-2.8671,-2.867,-2.8717,-2.8678,-2.8678,-2.8678,-2.8678,0,-2.8576,-2.8593,-2.8592,-2.8603,-2.8622,-2.8619,-2.8637,-2.8639,-2.8644,-2.8655,-2.8648,-2.8659,-2.8655,-2.8665,-2.8663,-2.8679,-2.8682,-2.8681,-2.868,-2.8681,-2.868,-2.8682,-2.8679,-2.8679,-2.8679,-2.8679,-2.8679,0,-2.8609,-2.8609,-2.8629,-2.8635,-2.8636,-2.865,-2.8654,-2.8664,-2.8665,-2.8679,-2.8682,-2.8683,-2.8694,-2.8692,-2.8705,-2.8704,-2.8724,-2.8722,-2.8722,-2.8721,-2.8734,-2.8732,-2.8782,-2.8788,-2.8747,-2.8748,-2.8748,0,-2.8631,-2.8644,-2.8651,-2.8658,-2.8662,-2.8674,-2.8681,-2.8678,-2.8686,-2.8694,-2.8703,-2.8715,-2.8723,-2.8743,-2.8743,-2.8753,-2.8749,-2.8766,-2.8751,-2.8751,-2.8747,-2.8746,-2.8746,-2.8769,-2.8769,-2.8769,-2.877,0,-2.8668,-2.8668,-2.8678,-2.8689,-2.8698,-2.8706,-2.8713,-2.872,-2.8718,-2.8727,-2.8739,-2.8746,-2.8759,-2.877,-2.878,-2.8782,-2.8775,-2.8775,-2.8779,-2.8778,-2.8777,-2.8776,-2.8728,-2.8773,-2.8773,-2.8773,-2.8773,-2.8772,-2.8695,-2.8706,-2.8712,-2.8724,-2.873,-2.8737,-2.8747,-2.8749,-2.876,-2.8771,-2.8769,-2.8782,-2.8788,-2.88,-2.8804,-2.8814,-2.8808,-2.8813,-2.8814,-2.8815,-2.8816,-2.8778,-2.8816,-2.8816,-2.8816,-2.8816,-2.8816,0,-2.873,-2.8735,-2.8746,-2.8757,-2.8766,-2.8761,-2.8769,-2.8776,-2.8788,-2.8795,-2.8804,-2.8818,-2.8829,-2.8831,-2.8841,-2.8849,-2.8846,-2.8851,-2.8849,-2.885,-2.8822,-2.8817,-2.8853,-2.8853,-2.8853,-2.8853,-2.8853,-2.8853,-2.875,-2.8767,-2.8768,-2.8788,-2.8792,-2.8806,-2.8811,-2.8817,-2.8822,-2.8838,-2.8847,-2.8849,-2.8854,-2.8865,-2.8874,-2.8874,-2.8877,-2.8884,-2.8883,-2.8856,-2.8852,-2.8848,-2.8843,-2.8885,-2.8885,-2.891,-2.891,-2.891]},{"header":{"parameterUnit":"m.s-1","parameterCategory":1,"la1":30.2991,"la2":30.254,"lo1":-89.0895,"lo2":-89.0444,"dy":0.0017,"dx":0.0017,"nx":28,"ny":28,"refTime":"2023-03-22T21:00:00:Z","depth":0,"parameterNumber":3,"parameterNumberName":"V-component_of_WINDS"},"data":[0,0,0,0,0,0,0,0,0,0,0,0,0,0,0,0,0,0,0,0,0,0,0,0,0,0,0,0,0,0,0,0,0,0,0,0,0,0,0,0,0,0,0,0,0,0,0,0,0,0,0,0,0,0,0,0,0,0,3.4849,3.4848,0,3.4756,3.4754,3.4753,3.4715,3.4715,3.4716,3.4716,3.4615,3.4612,3.4609,0,0,0,0,0,0,0,0,0,0,0,0,0,3.4993,3.4991,3.4849,3.4848,3.4847,3.4756,3.4754,3.4753,3.4715,3.4715,3.4716,3.4716,3.4616,3.4613,3.4609,0,0,0,0,0,0,0,0,0,0,0,0,0,3.4918,3.499,3.4849,3.4817,3.4813,3.4756,3.4754,3.4753,3.4715,3.4715,3.4716,3.4716,3.4617,3.4613,3.4609,3.4575,0,0,3.4595,3.4594,0,0,0,0,0,0,0,0,3.4922,3.4913,3.4823,3.4819,3.4815,3.4748,3.4768,3.4693,3.4715,3.4752,3.4716,3.4716,3.4659,3.4651,3.4632,3.457,3.4566,3.4595,3.4592,3.4591,3.4589,0,0,0,0,0,0,0,3.4928,3.4917,3.4812,3.4822,3.4817,3.4807,3.4796,3.4754,3.4704,3.4749,3.4746,3.4736,3.4656,3.4637,3.463,3.4565,3.4595,3.4591,3.4589,3.4587,3.4475,3.4475,0,0,0,0,0,0,3.4939,3.4921,3.4815,3.4809,3.4871,3.4804,3.4792,3.4769,3.4705,3.4695,3.4736,3.4734,3.4644,3.4635,3.4626,3.4586,3.4591,3.4586,3.4584,3.4476,3.4475,3.4475,0,0,0,0,0,0,3.4942,3.493,3.4819,3.4864,3.485,3.4801,3.4775,3.4767,3.4747,3.4695,3.4685,3.4725,3.4644,3.4632,3.459,3.4581,3.4585,3.4581,3.4476,3.4476,3.4475,3.4503,0,0,0,0,0,0,3.4946,3.4931,3.4918,3.4864,3.4847,3.4784,3.4774,3.4765,3.474,3.4738,3.4682,3.4673,3.4643,3.4596,3.4585,3.4575,3.4577,3.4477,3.4476,3.4475,3.4502,3.4503,3.4504,0,0,0,0,0,3.4952,3.4927,3.4917,3.4904,3.483,3.4783,3.4774,3.4741,3.474,3.4726,3.4694,3.4675,3.4585,3.4592,3.4579,3.4568,3.4477,3.4476,3.4475,3.4502,3.4503,3.4504,0,0,0,0,0,0,3.4976,3.4919,3.4907,3.4865,3.483,3.4777,3.4758,3.4743,3.4705,3.4704,3.4664,3.4652,3.4614,3.4586,3.4596,3.4535,3.4529,3.4526,3.4554,3.4555,3.4555,3.4563,3.4574,0,0,0,0,0,3.4978,3.4946,3.4897,3.4864,3.4848,3.4807,3.4785,3.4764,3.4725,3.4709,3.4673,3.4635,3.4599,3.4575,3.4538,3.4499,3.4487,3.4485,3.4486,3.4487,3.4484,3.4465,3.4465,3.4472,3.4472,3.4472,0,0,3.4978,3.4943,3.4925,3.4869,3.4839,3.4807,3.4794,3.4759,3.4736,3.4703,3.4662,3.4635,3.459,3.4551,3.4531,3.4527,3.448,3.4486,3.4487,3.4484,3.4464,3.4464,3.4463,3.4472,3.4472,3.4472,0,0,3.4964,3.4934,3.4905,3.4877,3.4834,3.4808,3.4802,3.4752,3.4734,3.4693,3.4669,3.464,3.4577,3.4548,3.4524,3.4506,3.4488,3.4495,3.4499,3.4481,3.448,3.4479,3.4475,3.4473,3.4492,3.4493,3.4493,0,3.497,3.4922,3.4892,3.4861,3.4838,3.4811,3.4783,3.4756,3.4702,3.4687,3.4684,3.4608,3.4575,3.453,3.4527,3.4508,3.45,3.45,3.4483,3.4482,3.4481,3.4476,3.4474,3.4494,3.4494,3.4493,3.4493,0,3.4933,3.4901,3.4883,3.4836,3.4811,3.4781,3.4747,3.4725,3.4708,3.4682,3.4643,3.4604,3.4561,3.4548,3.4529,3.4502,3.4501,3.4491,3.4484,3.4482,3.4477,3.4475,3.4495,3.4495,3.4495,3.4494,0,0,3.4928,3.4869,3.4863,3.4843,3.4796,3.4771,3.4741,3.4702,3.4685,3.465,3.4625,3.4576,3.4568,3.4542,3.4519,3.4503,3.4495,3.4496,3.4494,3.4498,3.4466,3.4474,3.4473,3.4484,3.4483,3.4483,3.447,0,3.4908,3.4856,3.4831,3.4789,3.4761,3.4738,3.4712,3.4681,3.4658,3.463,3.4603,3.457,3.4561,3.4546,3.4529,3.45,3.4488,3.45,3.4461,3.446,3.4473,3.4469,3.4477,3.4467,3.4468,3.4467,3.4467,0,3.4877,3.4847,3.4804,3.4766,3.4753,3.473,3.4695,3.4669,3.4634,3.4618,3.4593,3.4572,3.4541,3.4539,3.4496,3.4506,3.4488,3.4472,3.4471,3.4466,3.4463,3.4465,3.4462,3.4461,3.4463,3.4464,3.4464,0,3.4881,3.4829,3.4798,3.4781,3.4735,3.472,3.47,3.4666,3.4646,3.4615,3.4602,3.4566,3.4547,3.452,3.4492,3.4492,3.4454,3.4447,3.444,3.4441,3.4432,3.4433,3.4427,3.442,3.442,3.442,3.442,0,3.4862,3.4837,3.48,3.478,3.4753,3.4724,3.4698,3.4675,3.4646,3.4623,3.46,3.4578,3.4541,3.4515,3.4492,3.4463,3.4454,3.4441,3.4435,3.4443,3.4445,3.4431,3.4431,3.442,3.442,3.442,3.442,0,3.486,3.4834,3.4799,3.476,3.475,3.4731,3.4698,3.4679,3.4657,3.4627,3.4619,3.4583,3.4552,3.4522,3.4478,3.4463,3.4434,3.4426,3.4447,3.4444,3.4439,3.444,3.4424,3.4421,3.4416,3.4416,3.4416,0,3.4849,3.4831,3.4792,3.4776,3.4757,3.4731,3.4712,3.4685,3.4665,3.4628,3.4614,3.4582,3.4555,3.4506,3.4476,3.4444,3.4435,3.4432,3.443,3.444,3.4437,3.4439,3.4438,3.4432,3.4433,3.4433,3.4433,0,3.4835,3.4825,3.4799,3.477,3.4749,3.4724,3.4698,3.4686,3.4654,3.4634,3.4604,3.4583,3.4542,3.4511,3.4477,3.4455,3.4439,3.4435,3.4431,3.4439,3.4453,3.4448,3.445,3.4434,3.4434,3.4434,3.4434,3.4434,3.4829,3.4813,3.4785,3.4758,3.4737,3.4715,3.4697,3.4675,3.465,3.4616,3.4601,3.4572,3.4541,3.4494,3.4474,3.445,3.4446,3.444,3.4439,3.4439,3.4442,3.4458,3.4443,3.4443,3.4443,3.4443,3.4443,0,3.4815,3.4797,3.4773,3.4741,3.4721,3.4711,3.4683,3.4667,3.4642,3.4616,3.4592,3.4559,3.453,3.45,3.4469,3.4457,3.4449,3.445,3.445,3.4446,3.4446,3.4453,3.4457,3.4457,3.4457,3.4457,3.4457,3.4457,3.4805,3.4779,3.4766,3.473,3.4712,3.4685,3.4671,3.4651,3.4631,3.4596,3.4573,3.4555,3.4528,3.4497,3.4471,3.4463,3.4453,3.4456,3.4446,3.4447,3.4446,3.4445,3.4451,3.4454,3.4454,3.4448,3.4448,3.4448]}]]